Wind_Speed
33 32 29 26 22 19 16 14 11 10 11 12 13 16 18 23 27 21 7 4 4 3 9 8 11 18 18 6 7 1 1 3 7 2 8 2 3 2 6 4 2 3 3 11 24
33 34 32 28 25 21 18 15 12 11 10 12 13 15 18 22 26 13 9 7 4 3 4 9 6 8 1 4 3 5 4 7 7 6 7 6 3 4 3 4 2 3 6 21 27
36 35 34 31 27 23 19 16 13 11 11 12 13 15 17 20 6 1 2 4 3 4 4 13 12 5 3 4 5 6 8 5 14 13 7 7 8 6 7 4 3 4 5 2 10
38 35 35 32 28 25 20 16 14 12 11 11 12 15 16 8 2 1 4 3 1 1 7 12 5 5 3 5 7 5 8 9 14 9 8 8 6 4 6 8 7 10 7 5 4
39 38 36 34 29 25 22 17 14 12 11 10 11 13 8 4 7 5 0 2 5 7 7 6 6 5 6 5 7 8 8 8 7 8 7 8 7 7 12 9 10 11 11 11 9
40 39 37 34 30 26 22 18 15 13 11 9 8 9 3 5 6 3 1 2 4 6 10 10 7 7 6 5 4 7 9 9 9 10 8 10 12 4 19 11 11 10 13 11 9
45 40 37 34 31 27 23 19 15 12 10 8 6 6 4 15 9 7 6 6 7 6 4 6 13 4 7 9 7 10 8 9 12 7 10 8 9 15 21 13 11 8 11 4 7
45 44 39 34 31 26 22 18 14 11 9 6 6 3 7 13 12 18 13 18 16 8 9 11 11 4 1 7 8 5 6 4 8 10 13 6 16 13 12 8 8 6 4 7 7
44 43 40 35 31 26 21 17 12 9 7 4 5 3 8 7 11 23 20 12 13 14 13 9 5 3 3 3 5 5 5 7 10 12 7 4 5 6 7 7 8 7 7 8 9
44 42 39 36 31 26 22 16 10 5 5 4 9 5 8 5 10 6 11 16 7 5 5 6 2 2 4 5 8 6 7 8 6 8 15 10 8 6 8 6 10 10 9 9 10
45 41 39 37 33 29 27 17 4 2 9 10 10 6 8 8 7 6 8 5 9 4 7 7 5 10 19 15 14 10 14 15 11 11 8 10 13 10 10 11 14 10 9 9 10
46 42 40 37 36 34 34 5 10 0 6 22 20 19 27 12 4 6 13 7 7 11 8 4 15 19 13 14 15 17 19 18 8 8 11 10 18 8 9 18 22 20 10 5 5
47 44 40 39 36 38 33 24 12 13 3 8 16 13 16 16 9 10 12 5 9 11 14 14 8 21 17 17 17 17 15 10 12 6 6 10 20 8 9 12 14 1 7 8 9
49 44 43 40 35 32 26 33 14 7 3 7 11 10 13 10 9 26 21 8 7 14 14 15 19 19 18 20 16 19 11 15 9 7 11 6 20 7 14 20 14 8 7 9 9
49 48 48 51 21 24 24 28 12 2 2 6 10 10 12 16 13 17 34 15 16 10 9 11 10 19 22 22 16 16 5 4 5 11 9 3 6 4 12 17 15 11 8 9 9
51 51 50 48 25 33 31 25 12 4 11 6 11 13 10 14 5 1 20 17 4 15 17 19 12 9 9 6 4 4 3 4 5 4 13 7 8 1 6 4 6 9 9 9 8
48 50 54 44 17 45 42 13 5 6 7 9 8 13 15 13 15 7 15 23 16 7 19 23 30 23 17 15 13 4 4 2 3 2 11 9 9 12 4 10 11 12 9 8 8
46 52 53 42 38 51 31 11 7 24 21 4 10 17 20 16 14 16 11 17 25 15 3 12 10 18 17 26 14 10 9 6 6 5 4 12 6 7 8 6 8 9 9 8 7
42 44 32 34 53 52 18 20 17 10 20 7 0 15 18 17 8 18 21 20 20 27 12 7 12 11 10 26 23 12 19 12 8 7 2 4 6 3 11 8 9 9 9 8 8
26 19 23 36 55 37 19 18 17 15 5 25 15 8 13 20 16 18 14 15 22 20 23 5 6 5 6 10 20 11 6 8 5 5 4 5 7 4 8 8 7 7 7 6 8
13 5 13 32 45 16 18 18 11 15 14 16 20 10 13 11 19 16 9 13 22 22 21 21 4 5 6 6 16 14 15 5 3 6 5 1 5 4 12 8 7 4 3 5 4
3 4 9 31 13 10 16 13 17 18 19 5 3 18 17 16 16 23 15 15 13 22 28 23 7 9 9 3 10 11 13 9 6 5 3 4 8 6 9 9 8 7 7 6 6
4 3 5 5 11 9 2 15 12 15 17 13 11 7 11 5 4 8 21 1 11 8 5 14 4 6 6 9 5 11 9 14 7 5 7 4 5 7 7 6 6 6 4 4 6
4 3 2 2 2 7 7 12 10 16 12 11 11 7 4 7 3 4 6 1 5 5 12 2 1 6 7 4 3 4 5 4 2 3 3 13 18 15 8 7 7 5 3 1 4
3 2 3 5 3 6 9 7 6 8 3 11 9 16 11 6 10 5 4 2 8 8 5 5 2 3 6 6 10 5 8 14 11 9 7 14 11 15 2 4 11 10 11 8 6
4 4 2 4 16 12 10 9 15 4 7 5 5 9 12 7 5 6 5 3 3 4 5 2 2 5 5 9 4 5 10 11 13 13 13 13 14 5 10 13 12 12 12 13 13
3 0 3 10 11 14 11 9 13 9 1 1 6 6 6 6 6 5 5 3 6 5 3 4 4 3 4 2 4 5 19 21 19 17 8 10 10 7 10 12 9 9 11 10 10
Wind_Direction
225 221 222 225 229 231 235 244 258 275 294 309 319 326 330 329 323 326 266 235 210 286 314 307 280 264 242 235 247 161 277 269 254 352 316 226 155 205 164 147 154 188 259 150 150
226 224 221 223 226 232 235 240 251 269 286 302 314 323 329 330 325 287 246 237 248 294 317 308 318 335 278 275 242 141 169 238 248 321 303 306 17 336 350 243 184 238 270 156 157
225 228 224 221 223 226 234 240 248 262 280 297 312 321 327 329 309 286 186 229 227 185 351 316 307 310 278 289 248 218 214 246 279 279 308 314 328 332 357 316 261 275 272 272 174
225 225 228 222 220 224 227 235 246 256 271 292 312 322 326 319 287 164 98 115 186 243 342 311 314 313 286 280 282 265 255 228 255 270 303 294 277 283 269 262 272 292 277 283 274
224 225 225 225 221 222 223 226 239 250 266 286 310 330 345 292 253 233 263 258 282 289 290 298 305 287 246 265 310 251 258 262 291 314 286 305 293 261 263 256 262 265 265 255 250
222 223 223 223 221 220 224 221 226 244 260 280 310 332 289 251 255 229 149 211 266 277 276 258 254 276 279 275 275 302 307 290 287 290 296 280 274 277 269 250 252 250 246 237 216
223 222 222 219 220 218 217 224 221 233 252 274 304 340 264 240 258 238 257 234 236 290 320 327 348 39 355 323 343 314 301 309 282 278 261 257 276 248 251 248 248 291 261 172 177
222 221 221 218 216 215 215 214 221 228 240 266 289 296 245 267 268 264 247 253 246 242 270 306 333 6 360 317 332 316 299 292 271 245 254 186 261 254 252 221 244 259 189 186 225
220 219 218 214 212 209 206 204 205 220 239 250 286 206 262 275 245 248 237 254 234 237 235 267 289 194 317 227 314 241 255 224 280 256 241 166 264 286 320 294 276 264 242 235 238
218 217 215 211 207 199 189 184 175 192 232 257 257 355 254 233 215 219 228 227 227 262 180 206 195 231 213 180 220 211 221 261 248 299 318 307 292 292 299 283 257 265 264 251 245
216 214 212 207 199 186 160 130 117 230 231 199 183 223 283 204 130 182 181 185 190 234 189 179 178 206 218 209 235 265 280 281 285 288 305 297 304 328 325 325 306 290 271 259 248
213 209 208 203 192 182 174 176 191 156 244 224 247 231 266 278 292 226 196 171 184 204 195 245 224 221 225 231 232 237 251 263 266 300 293 303 292 294 297 280 273 270 272 307 58
209 207 203 199 187 179 180 187 126 14 281 224 214 230 230 244 235 208 178 185 198 207 196 214 215 208 218 233 241 242 246 267 275 277 286 318 291 282 272 291 293 5 121 107 93
206 203 198 190 176 180 186 193 228 314 304 248 206 237 208 208 250 220 187 166 216 212 219 238 232 242 218 233 234 246 246 258 280 295 281 170 290 249 276 276 260 136 114 109 94
204 200 194 188 164 182 179 192 201 233 287 215 201 172 170 181 139 204 203 207 214 190 194 220 192 210 228 235 240 264 264 298 299 289 308 170 288 333 283 279 284 130 121 105 96
200 196 191 183 173 173 169 167 169 75 239 253 149 168 139 193 234 76 187 211 193 239 257 247 274 262 245 265 226 51 31 332 300 267 258 166 211 280 279 154 99 117 125 117 113
198 196 188 179 168 159 164 139 104 201 192 194 173 161 161 176 211 193 181 189 201 183 231 246 249 257 267 276 265 151 137 271 275 234 252 183 229 233 229 166 151 145 136 127 130
204 191 187 175 166 161 159 153 182 224 211 136 150 173 190 172 212 215 185 203 210 230 178 214 262 206 211 224 214 196 176 176 201 216 259 241 229 240 164 95 111 130 142 132 132
201 185 188 185 171 161 165 185 206 184 193 224 26 184 206 204 166 202 224 215 207 208 209 198 235 202 201 216 201 187 210 195 240 277 268 244 286 141 116 105 98 99 113 145 154
189 189 193 191 173 167 179 190 219 223 176 197 212 200 193 200 207 194 192 222 219 222 222 256 286 217 205 179 210 188 151 189 205 217 239 240 252 224 137 138 125 141 144 152 177
172 184 159 187 171 178 186 204 211 211 226 186 215 206 215 190 213 207 213 218 201 213 211 224 257 289 144 187 187 187 212 170 188 195 180 197 255 166 143 144 143 99 119 216 264
150 173 171 169 187 192 188 194 202 202 217 227 258 212 213 217 222 214 227 187 4 208 206 207 226 232 220 251 171 197 196 179 198 208 201 170 243 164 132 123 108 76 71 75 95
138 117 64 170 193 182 217 210 189 197 210 184 206 221 219 214 229 222 216 190 35 48 256 201 191 209 194 254 241 192 182 198 198 149 199 197 237 200 27 59 87 59 73 77 56
123 137 80 51 69 145 170 196 195 203 212 192 206 216 125 201 180 245 166 30 72 83 358 44 205 198 186 159 134 62 323 353 16 114 250 244 275 258 291 327 353 0 45 188 158
175 158 159 153 150 149 168 161 138 169 202 193 204 196 170 183 183 204 133 126 61 84 43 352 183 354 298 334 86 166 260 288 296 283 243 276 249 285 246 311 25 28 18 11 50
128 143 143 162 147 151 155 191 178 161 158 182 183 181 168 153 174 166 124 115 135 96 121 100 323 359 310 302 342 300 280 270 260 264 267 278 272 312 79 57 32 49 52 43 26
189 107 123 144 163 168 176 165 190 131 310 90 146 135 150 131 89 80 63 120 147 150 138 127 153 129 259 301 343 252 232 246 255 257 243 253 271 48 41 57 71 67 63 62 42
Height
778 781 785 788 791 793 795 797 798 798 798 797 796 794 792 788 783 780 779 777 777 777 777 775 774 772 772 774 770 769 801 809 797 782 776 751 754 743 740 748 745 743 745 748 751
774 777 780 784 787 791 793 794 795 796 796 796 795 793 791 787 781 775 774 775 776 776 776 775 773 770 776 772 772 783 805 797 775 770 772 762 759 755 756 753 750 748 742 747 746
770 773 776 779 784 787 790 792 794 794 795 795 794 792 790 787 783 773 773 774 775 776 776 775 773 772 777 773 771 774 792 775 768 762 759 764 759 749 758 762 751 754 748 744 748
764 767 773 776 779 784 787 790 792 793 793 793 793 791 788 787 794 772 772 774 775 776 776 775 774 780 782 784 768 779 768 767 761 755 756 763 755 754 752 751 745 742 740 740 741
758 762 767 773 776 780 784 786 790 791 792 792 792 791 788 788 779 772 772 773 774 775 776 777 779 780 786 776 772 774 767 760 755 754 755 753 757 756 749 741 738 737 736 737 737
751 757 762 768 773 777 782 784 786 790 791 791 791 790 791 794 771 770 771 772 772 774 774 774 775 772 775 774 778 765 763 760 754 754 753 757 754 752 740 734 735 734 732 730 732
744 751 757 763 769 774 778 783 784 787 789 790 790 789 790 778 769 768 770 770 770 771 773 773 773 772 775 779 768 767 775 765 756 754 756 745 764 755 732 729 733 732 726 726 727
736 744 752 758 764 770 776 780 783 786 788 789 789 789 783 768 766 764 765 765 768 770 771 772 773 774 777 774 773 780 779 791 755 749 741 751 769 740 727 726 728 725 722 723 722
729 737 746 753 760 767 773 778 781 786 788 787 788 787 778 762 761 758 762 763 765 768 770 772 774 778 779 790 798 785 797 785 770 738 747 746 757 735 726 729 730 726 725 723 721
722 730 739 748 756 764 770 777 780 784 786 787 786 792 769 758 754 755 758 761 764 765 770 772 778 786 789 796 804 792 789 782 777 754 742 750 747 737 728 727 729 726 723 721 718
715 724 734 744 752 759 768 776 786 785 781 772 767 761 752 751 750 753 756 760 765 767 777 771 789 792 778 774 772 773 774 773 763 747 750 753 746 743 737 733 732 728 722 718 714
708 717 729 740 747 754 761 763 764 765 767 764 759 759 750 752 754 752 753 761 768 773 769 779 780 768 764 765 768 771 774 770 758 746 749 755 746 742 737 728 719 714 717 715 714
699 710 723 735 745 750 752 758 760 760 766 750 750 749 751 751 754 749 750 751 759 767 765 768 755 752 755 759 763 761 765 764 763 752 748 754 741 744 730 720 712 707 712 716 716
691 704 716 731 745 743 748 756 760 762 777 745 735 729 735 743 741 744 742 745 753 759 761 756 746 750 750 755 754 763 746 747 754 765 776 751 763 749 733 718 712 719 716 716 715
683 696 706 717 725 734 744 752 763 766 788 718 713 707 711 728 724 727 733 738 746 751 751 741 738 743 744 740 740 746 739 748 753 762 769 763 779 746 726 721 706 716 714 714 715
678 687 700 715 720 731 742 751 761 785 788 713 696 708 719 725 721 714 725 730 737 747 741 736 727 730 731 728 731 734 742 749 755 764 775 766 773 757 738 723 715 710 712 712 717
675 679 690 703 707 725 736 747 778 778 708 700 705 702 714 723 726 720 728 736 746 760 754 741 732 727 729 741 734 738 753 783 789 789 771 746 759 750 717 711 707 710 713 715 718
669 677 679 687 704 716 728 743 750 706 702 675 689 698 707 711 718 720 725 734 731 731 731 746 743 726 715 721 732 739 750 778 791 790 767 737 754 726 705 706 706 707 713 718 722
661 668 676 682 691 701 716 724 699 691 692 696 694 703 707 704 708 719 720 721 712 720 734 732 726 698 697 702 718 730 740 736 760 754 766 753 726 710 706 711 709 710 715 720 722
652 663 665 678 682 689 699 703 695 689 681 694 699 691 700 701 709 713 715 698 709 704 710 712 727 698 688 693 701 712 719 753 756 774 779 754 744 736 722 718 714 716 715 713 714
648 657 657 671 676 677 684 694 691 680 682 687 688 690 696 701 698 700 698 692 691 696 699 709 718 706 690 700 705 717 724 727 738 749 773 773 755 706 715 715 719 717 714 715 714
639 648 656 662 663 669 678 678 682 683 681 689 689 684 690 693 693 693 693 691 691 684 698 695 708 717 700 684 684 698 711 723 751 744 746 753 750 703 709 710 713 715 717 716 715
641 653 655 658 657 669 679 675 678 678 678 687 690 684 685 691 699 690 687 691 696 704 693 693 713 722 711 704 687 698 703 706 718 731 745 762 741 698 702 711 712 713 712 714 715
641 647 659 662 668 669 677 671 677 675 674 676 680 683 690 694 691 689 693 697 697 703 708 706 708 708 721 711 706 720 716 713 723 748 745 731 723 713 716 717 716 714 713 710 713
630 643 641 654 668 670 668 671 674 677 682 673 679 677 682 696 690 697 692 699 697 706 711 713 713 709 700 694 706 725 726 720 727 730 741 730 731 710 715 716 726 723 720 717 722
634 637 644 647 658 664 667 671 668 680 678 679 682 677 677 691 689 695 693 698 701 706 711 717 725 717 713 700 705 719 715 717 719 720 719 721 718 709 723 729 731 730 732 737 737
632 630 628 644 648 654 661 667 664 671 682 678 676 677 682 689 694 700 702 701 703 706 711 716 721 726 721 710 716 731 717 715 709 706 713 728 718 727 730 732 736 739 739 743 744